Find Starlink 37112

NORAD ID: 68708 Int'l Des: 2026-081 Owner: SPXS Country: US Constellation: starlink operational
LEOCIRCULAR

Live Position

Loading 3D Globe...

About Starlink 37112

Description loading...

Upcoming Passes

Passes for default location (London). Set your location on the main map for personalized predictions.

Altitude History

Loading altitude history...

Two-Line Element Set

1 68708C 26081J 26105.38798611 .00609140 00000+0 78766-3 0 1058
2 68708 53.1628 237.9752 0007444 302.3210 40.8870 16.06031363 18
Epoch: Apr 15, 2026 • Age: 25 hours

Current Status

Altitude 255.6 km
Velocity 7.76 km/s
Sub-Earth Point -19.81°S, 147.54°W
Launch Date Apr 14, 2026
Age 2 days
Type internet

Technical Details

Classification Payload
Mass 575.00 kg
Dry Mass 530.00 kg
Total Mass 575.00 kg
Length 0.30 m
Diameter 4.10 m
Span 29.00 m
Shape Box + pan
Manufacturer SPXS
Bus Type Starlink V2MO
Phase Status In Orbit
Owner/State SPXS/US

Most Searched